Time,TemperatureF,DewpointF,PressureIn,WindDirection,WindDirectionDegrees,WindSpeedMPH,WindSpeedGustMPH,Humidity,HourlyPrecipIn,Conditions,Clouds,dailyrainin,SoftwareType,DateUTC
2013-07-21 00:00:00,71.5,66.1,29.88,WSW,244,0.0,1.0,83,0.00,,SCT030,0.38,VWS V14.01,2013-07-21 05:00:00,
2013-07-21 00:05:00,71.5,66.1,29.88,WSW,244,0.0,0.0,83,0.00,,SCT030,0.00,VWS V14.01,2013-07-21 05:05:00,
2013-07-21 00:10:00,71.5,66.1,29.88,WSW,244,0.0,0.0,83,0.00,,SCT030,0.00,VWS V14.01,2013-07-21 05:10:00,
2013-07-21 00:15:00,71.4,66.0,29.88,WSW,244,0.0,0.0,83,0.00,,SCT030,0.00,VWS V14.01,2013-07-21 05:15:00,
2013-07-21 00:21:00,71.4,66.0,29.88,WSW,244,0.0,0.0,83,0.00,,SCT030,0.00,VWS V14.01,2013-07-21 05:21:00,
2013-07-21 00:26:00,71.3,65.9,29.88,WSW,244,0.0,0.0,83,0.00,,SCT030,0.00,VWS V14.01,2013-07-21 05:26:00,
2013-07-21 00:31:00,71.2,65.8,29.88,WSW,244,0.0,0.0,83,0.00,,SCT030,0.00,VWS V14.01,2013-07-21 05:31:00,
2013-07-21 00:36:00,71.2,65.8,29.88,WSW,244,0.0,0.0,83,0.00,,,0.00,VWS V14.01,2013-07-21 05:36:00,
2013-07-21 00:41:00,71.1,65.7,29.88,WSW,244,0.0,0.0,83,0.00,,SCT003,0.00,VWS V14.01,2013-07-21 05:41:00,
2013-07-21 00:46:00,71.1,65.7,29.88,WSW,244,0.0,0.0,83,0.00,,SCT003,0.00,VWS V14.01,2013-07-21 05:46:00,
2013-07-21 00:51:00,71.0,65.6,29.88,WSW,244,0.0,0.0,83,0.00,,SCT003,0.00,VWS V14.01,2013-07-21 05:51:00,
2013-07-21 00:56:00,71.0,65.6,29.88,WSW,244,0.0,0.0,83,0.00,,SCT003,0.00,VWS V14.01,2013-07-21 05:56:00,
2013-07-21 01:01:00,70.9,65.5,29.88,WSW,244,0.0,0.0,83,0.00,,SCT003,0.00,VWS V14.01,2013-07-21 06:01:00,
2013-07-21 01:06:00,70.9,65.5,29.88,WSW,244,0.0,0.0,83,0.00,,SCT003,0.00,VWS V14.01,2013-07-21 06:06:00,
2013-07-21 01:11:00,70.8,65.4,29.88,WSW,244,0.0,0.0,83,0.00,,SCT003,0.00,VWS V14.01,2013-07-21 06:11:00,
2013-07-21 01:16:00,70.8,65.4,29.88,WSW,244,0.0,0.0,83,0.00,,SCT003,0.00,VWS V14.01,2013-07-21 06:16:00,
2013-07-21 01:21:00,70.9,65.5,29.88,WSW,244,0.0,0.0,83,0.00,,SCT003,0.00,VWS V14.01,2013-07-21 06:21:00,
2013-07-21 01:26:00,71.0,65.6,29.88,WSW,244,0.0,0.0,83,0.00,,SCT003,0.00,VWS V14.01,2013-07-21 06:26:00,
2013-07-21 01:31:00,71.0,65.6,29.88,WSW,244,0.0,0.0,83,0.00,,SCT003,0.00,VWS V14.01,2013-07-21 06:31:00,
2013-07-21 01:36:00,71.0,65.6,29.87,WSW,244,0.0,0.0,83,0.00,,,0.00,VWS V14.01,2013-07-21 06:36:00,
2013-07-21 01:41:00,70.9,65.5,29.87,WSW,244,0.0,0.0,83,0.00,,,0.00,VWS V14.01,2013-07-21 06:41:00,
2013-07-21 01:46:00,70.9,65.5,29.87,WSW,244,0.0,0.0,83,0.00,,,0.00,VWS V14.01,2013-07-21 06:46:00,
2013-07-21 01:51:00,70.8,65.4,29.87,WSW,244,0.0,0.0,83,0.00,,,0.00,VWS V14.01,2013-07-21 06:51:00,
2013-07-21 01:56:00,70.8,65.4,29.87,WSW,244,0.0,0.0,83,0.00,,,0.00,VWS V14.01,2013-07-21 06:56:00,
2013-07-21 02:01:00,70.8,65.4,29.88,WSW,244,0.0,0.0,83,0.00,,,0.00,VWS V14.01,2013-07-21 07:01:00,
2013-07-21 02:06:00,70.8,65.4,29.88,WSW,244,0.0,0.0,83,0.00,,,0.00,VWS V14.01,2013-07-21 07:06:00,
2013-07-21 02:11:00,70.8,65.4,29.88,WSW,244,0.0,0.0,83,0.00,,,0.00,VWS V14.01,2013-07-21 07:11:00,
2013-07-21 02:16:00,70.8,65.4,29.88,WSW,244,0.0,0.0,83,0.00,,,0.00,VWS V14.01,2013-07-21 07:16:00,
2013-07-21 02:21:00,70.8,65.4,29.88,WSW,244,0.0,0.0,83,0.00,,,0.00,VWS V14.01,2013-07-21 07:21:00,
2013-07-21 02:26:00,70.8,65.4,29.88,WSW,244,0.0,0.0,83,0.00,,,0.00,VWS V14.01,2013-07-21 07:26:00,
2013-07-21 02:31:00,70.9,65.5,29.88,WSW,244,0.0,0.0,83,0.00,,,0.00,VWS V14.01,2013-07-21 07:31:00,
2013-07-21 02:36:00,70.9,65.5,29.88,WSW,244,0.0,0.0,83,0.00,,,0.00,VWS V14.01,2013-07-21 07:36:00,
2013-07-21 02:41:00,70.9,65.5,29.88,WSW,244,0.0,0.0,83,0.00,,,0.00,VWS V14.01,2013-07-21 07:41:00,
2013-07-21 02:46:00,71.0,65.6,29.88,WSW,244,0.0,0.0,83,0.00,,,0.00,VWS V14.01,2013-07-21 07:46:00,
2013-07-21 02:51:00,71.0,65.6,29.88,WSW,244,0.0,0.0,83,0.00,,,0.00,VWS V14.01,2013-07-21 07:51:00,
2013-07-21 02:56:00,71.0,65.6,29.88,WSW,244,0.0,0.0,83,0.00,,,0.00,VWS V14.01,2013-07-21 07:56:00,
2013-07-21 03:01:00,70.9,65.5,29.88,WSW,244,0.0,1.0,83,0.00,,,0.00,VWS V14.01,2013-07-21 08:01:00,
2013-07-21 03:06:00,70.9,65.5,29.87,WSW,244,0.0,0.0,83,0.00,,,0.00,VWS V14.01,2013-07-21 08:06:00,
2013-07-21 03:11:00,70.9,65.5,29.88,WSW,244,0.0,0.0,83,0.00,,,0.00,VWS V14.01,2013-07-21 08:11:00,
2013-07-21 03:16:00,70.9,65.5,29.87,WSW,244,0.0,0.0,83,0.00,,,0.00,VWS V14.01,2013-07-21 08:16:00,
2013-07-21 03:21:00,70.9,65.5,29.87,WSW,244,0.0,1.0,83,0.00,,,0.00,VWS V14.01,2013-07-21 08:21:00,
2013-07-21 03:26:00,70.8,65.4,29.88,WSW,244,0.0,0.0,83,0.00,,,0.00,VWS V14.01,2013-07-21 08:26:00,
2013-07-21 03:31:00,70.7,65.3,29.87,WSW,244,0.0,0.0,83,0.00,,,0.00,VWS V14.01,2013-07-21 08:31:00,
2013-07-21 03:36:00,70.7,65.3,29.87,WSW,244,0.0,0.0,83,0.00,,,0.00,VWS V14.01,2013-07-21 08:36:00,
2013-07-21 03:41:00,70.6,65.2,29.88,WSW,244,0.0,0.0,83,0.00,,,0.00,VWS V14.01,2013-07-21 08:41:00,
2013-07-21 03:46:00,70.6,65.2,29.88,WSW,244,0.0,0.0,83,0.00,,,0.00,VWS V14.01,2013-07-21 08:46:00,
2013-07-21 03:51:00,70.5,65.1,29.88,WSW,244,0.0,0.0,83,0.00,,,0.00,VWS V14.01,2013-07-21 08:51:00,
2013-07-21 03:56:00,70.5,65.1,29.88,WSW,244,0.0,0.0,83,0.00,,,0.00,VWS V14.01,2013-07-21 08:56:00,
2013-07-21 04:01:00,70.5,65.1,29.88,WSW,244,0.0,0.0,83,0.00,,,0.00,VWS V14.01,2013-07-21 09:01:00,
2013-07-21 04:06:00,70.4,65.0,29.88,WSW,244,0.0,0.0,83,0.00,,,0.00,VWS V14.01,2013-07-21 09:06:00,
2013-07-21 04:11:00,70.5,65.1,29.88,WSW,244,0.0,0.0,83,0.00,,,0.00,VWS V14.01,2013-07-21 09:11:00,
2013-07-21 04:16:00,70.5,65.1,29.88,WSW,244,0.0,0.0,83,0.00,,,0.00,VWS V14.01,2013-07-21 09:16:00,
2013-07-21 04:21:00,70.6,65.2,29.88,WSW,244,0.0,0.0,83,0.00,,,0.00,VWS V14.01,2013-07-21 09:21:00,
2013-07-21 04:26:00,70.6,65.2,29.88,WSW,244,0.0,0.0,83,0.01,,,0.01,VWS V14.01,2013-07-21 09:26:00,
2013-07-21 04:31:00,70.5,65.1,29.88,WSW,244,0.0,0.0,83,0.01,,,0.01,VWS V14.01,2013-07-21 09:31:00,
2013-07-21 04:36:00,70.5,65.1,29.88,WSW,244,0.0,0.0,83,0.01,,,0.01,VWS V14.01,2013-07-21 09:36:00,
2013-07-21 04:41:00,70.5,65.1,29.88,WSW,244,0.0,0.0,83,0.01,,,0.01,VWS V14.01,2013-07-21 09:41:00,
2013-07-21 04:46:00,70.5,65.1,29.89,WSW,244,0.0,0.0,83,0.01,,,0.01,VWS V14.01,2013-07-21 09:46:00,
2013-07-21 04:51:00,70.5,65.1,29.89,WSW,244,0.0,0.0,83,0.01,,,0.01,VWS V14.01,2013-07-21 09:51:00,
2013-07-21 04:56:00,70.5,65.1,29.89,WSW,244,0.0,0.0,83,0.01,,,0.01,VWS V14.01,2013-07-21 09:56:00,
2013-07-21 05:01:00,70.5,65.1,29.90,WSW,244,0.0,0.0,83,0.01,,,0.01,VWS V14.01,2013-07-21 10:01:00,
2013-07-21 05:06:00,70.5,65.1,29.90,WSW,244,0.0,0.0,83,0.01,,,0.01,VWS V14.01,2013-07-21 10:06:00,
2013-07-21 05:11:00,70.4,65.0,29.90,WSW,244,0.0,0.0,83,0.01,,,0.01,VWS V14.01,2013-07-21 10:11:00,
2013-07-21 05:16:00,70.5,65.1,29.90,WSW,244,0.0,0.0,83,0.01,,,0.01,VWS V14.01,2013-07-21 10:16:00,
2013-07-21 05:21:00,70.5,65.1,29.90,WSW,244,0.0,1.0,83,0.01,,,0.01,VWS V14.01,2013-07-21 10:21:00,
2013-07-21 05:26:00,70.4,65.0,29.90,WSW,244,0.0,1.0,83,0.01,,,0.01,VWS V14.01,2013-07-21 10:26:00,
2013-07-21 05:31:00,70.4,65.0,29.90,WSW,244,0.0,1.0,83,0.01,,,0.01,VWS V14.01,2013-07-21 10:31:00,
2013-07-21 05:36:00,70.3,64.9,29.90,SSE,153,0.0,2.0,83,0.00,,,0.01,VWS V14.01,2013-07-21 10:36:00,
2013-07-21 05:41:00,70.2,64.8,29.89,SSE,153,0.0,2.0,83,0.00,,,0.01,VWS V14.01,2013-07-21 10:41:00,
2013-07-21 05:46:00,70.2,64.8,29.90,SSE,153,0.0,1.0,83,0.00,,,0.01,VWS V14.01,2013-07-21 10:46:00,
2013-07-21 05:51:00,70.1,64.7,29.89,SSE,153,0.0,1.0,83,0.00,,,0.01,VWS V14.01,2013-07-21 10:51:00,
2013-07-21 05:56:00,70.1,64.7,29.89,SSE,153,0.0,1.0,83,0.00,,,0.01,VWS V14.01,2013-07-21 10:56:00,
2013-07-21 06:01:00,70.0,64.6,29.90,SSE,153,0.0,2.0,83,0.00,,,0.01,VWS V14.01,2013-07-21 11:01:00,
2013-07-21 06:06:00,70.0,64.6,29.90,SSE,153,0.0,0.0,83,0.00,,,0.01,VWS V14.01,2013-07-21 11:06:00,
2013-07-21 06:11:00,70.0,64.6,29.90,SSE,153,0.0,4.0,83,0.00,,,0.01,VWS V14.01,2013-07-21 11:11:00,
2013-07-21 06:21:00,70.0,64.6,29.90,SSE,153,0.0,1.0,83,0.00,,,0.01,VWS V14.01,2013-07-21 11:21:00,
2013-07-21 06:26:00,70.0,64.6,29.90,SSE,153,0.0,1.0,83,0.00,,,0.01,VWS V14.01,2013-07-21 11:26:00,
2013-07-21 06:31:00,70.0,64.6,29.90,SSE,153,0.0,1.0,83,0.00,,,0.01,VWS V14.01,2013-07-21 11:31:00,
2013-07-21 06:36:00,69.9,64.5,29.90,SSE,153,0.0,2.0,83,0.00,,,0.01,VWS V14.01,2013-07-21 11:36:00,
2013-07-21 06:41:00,69.8,64.4,29.90,SSE,153,0.0,2.0,83,0.00,,,0.01,VWS V14.01,2013-07-21 11:41:00,
2013-07-21 06:46:00,69.9,64.5,29.90,SSE,153,0.0,2.0,83,0.00,,,0.01,VWS V14.01,2013-07-21 11:46:00,
2013-07-21 06:51:00,69.9,64.5,29.90,SSE,153,0.0,2.0,83,0.00,,,0.01,VWS V14.01,2013-07-21 11:51:00,
2013-07-21 06:56:00,70.0,64.6,29.90,SSE,153,0.0,1.0,83,0.00,,,0.01,VWS V14.01,2013-07-21 11:56:00,
2013-07-21 07:01:00,70.1,64.7,29.90,SSE,153,0.0,0.0,83,0.00,,,0.01,VWS V14.01,2013-07-21 12:01:00,
2013-07-21 07:06:00,70.4,65.0,29.91,SSE,153,0.0,0.0,83,0.00,,,0.01,VWS V14.01,2013-07-21 12:06:00,
2013-07-21 07:11:00,70.6,65.2,29.91,SSE,153,0.0,0.0,83,0.00,,,0.01,VWS V14.01,2013-07-21 12:11:00,
2013-07-21 07:16:00,70.8,65.4,29.91,SSE,153,0.0,1.0,83,0.00,,,0.01,VWS V14.01,2013-07-21 12:16:00,
2013-07-21 07:21:00,70.9,65.5,29.91,SSE,153,0.0,0.0,83,0.00,,,0.01,VWS V14.01,2013-07-21 12:21:00,
2013-07-21 07:26:00,71.0,65.6,29.91,SSE,153,0.0,1.0,83,0.00,,,0.01,VWS V14.01,2013-07-21 12:26:00,
2013-07-21 07:31:00,71.1,65.7,29.91,SSE,153,0.0,0.0,83,0.00,,,0.01,VWS V14.01,2013-07-21 12:31:00,
2013-07-21 07:36:00,71.3,65.9,29.91,SSE,153,0.0,1.0,83,0.00,,,0.01,VWS V14.01,2013-07-21 12:36:00,
2013-07-21 07:42:00,71.3,65.9,29.91,SSE,153,0.0,0.0,83,0.00,,,0.01,VWS V14.01,2013-07-21 12:42:00,
2013-07-21 07:47:00,71.6,66.2,29.92,SSE,153,0.0,1.0,83,0.00,,,0.01,VWS V14.01,2013-07-21 12:47:00,
2013-07-21 07:52:00,71.7,66.3,29.91,SSE,153,0.0,1.0,83,0.00,,,0.01,VWS V14.01,2013-07-21 12:52:00,
2013-07-21 07:57:00,71.9,66.5,29.91,SSE,153,0.0,2.0,83,0.00,,,0.01,VWS V14.01,2013-07-21 12:57:00,
2013-07-21 08:02:00,71.9,66.5,29.91,SSE,153,0.0,0.0,83,0.00,,,0.01,VWS V14.01,2013-07-21 13:02:00,
2013-07-21 08:07:00,72.1,66.7,29.91,SSE,157,0.0,1.0,83,0.00,,,0.01,VWS V14.01,2013-07-21 13:07:00,
2013-07-21 08:12:00,72.4,66.9,29.91,SSE,157,1.0,1.0,83,0.00,,,0.01,VWS V14.01,2013-07-21 13:12:00,
2013-07-21 08:17:00,72.6,67.2,29.91,SSE,157,1.0,2.0,83,0.00,,,0.01,VWS V14.01,2013-07-21 13:17:00,
2013-07-21 08:22:00,72.5,67.1,29.91,SSE,157,0.0,0.0,83,0.00,,,0.01,VWS V14.01,2013-07-21 13:22:00,
2013-07-21 08:27:00,72.6,67.2,29.90,SSE,157,0.0,2.0,83,0.00,,,0.01,VWS V14.01,2013-07-21 13:27:00,
2013-07-21 08:32:00,72.7,67.2,29.91,SSE,157,0.0,0.0,83,0.00,,CLR,0.01,VWS V14.01,2013-07-21 13:32:00,
2013-07-21 08:37:00,72.6,67.2,29.91,SSE,153,0.0,4.0,83,0.00,,CLR,0.01,VWS V14.01,2013-07-21 13:37:00,
2013-07-21 08:42:00,72.6,67.2,29.91,SSE,153,0.0,0.0,83,0.00,,CLR,0.01,VWS V14.01,2013-07-21 13:42:00,
2013-07-21 08:47:00,72.8,67.3,29.91,SSE,153,0.0,0.0,83,0.00,,CLR,0.01,VWS V14.01,2013-07-21 13:47:00,
2013-07-21 08:52:00,72.9,67.4,29.91,SSE,153,0.0,1.0,83,0.00,,SCT100,0.01,VWS V14.01,2013-07-21 13:52:00,
2013-07-21 08:57:00,72.8,67.3,29.91,SSE,153,0.0,1.0,83,0.00,,SCT100,0.01,VWS V14.01,2013-07-21 13:57:00,
2013-07-21 09:02:00,73.0,67.5,29.91,SSE,153,0.0,0.0,83,0.00,,SCT100,0.01,VWS V14.01,2013-07-21 14:02:00,
2013-07-21 09:07:00,73.0,67.5,29.91,SSE,153,0.0,1.0,83,0.00,,SCT100,0.01,VWS V14.01,2013-07-21 14:07:00,
2013-07-21 09:12:00,73.1,67.6,29.92,SSE,153,0.0,1.0,83,0.00,,SCT100,0.01,VWS V14.01,2013-07-21 14:12:00,
2013-07-21 09:17:00,73.2,67.7,29.92,SSE,153,0.0,1.0,83,0.00,,SCT100,0.01,VWS V14.01,2013-07-21 14:17:00,
2013-07-21 09:22:00,73.3,67.8,29.91,SSE,153,0.0,2.0,83,0.00,,SCT100,0.01,VWS V14.01,2013-07-21 14:22:00,
2013-07-21 09:27:00,73.5,68.0,29.91,SSE,153,0.0,2.0,83,0.00,,SCT100,0.01,VWS V14.01,2013-07-21 14:27:00,
2013-07-21 09:32:00,73.6,68.1,29.92,SSE,153,0.0,0.0,83,0.00,,CLR,0.01,VWS V14.01,2013-07-21 14:32:00,
2013-07-21 09:37:00,73.6,68.1,29.92,SSE,153,0.0,1.0,83,0.00,,CLR,0.01,VWS V14.01,2013-07-21 14:37:00,
2013-07-21 09:42:00,73.7,68.6,29.92,SSE,153,0.0,0.0,84,0.00,,CLR,0.01,VWS V14.01,2013-07-21 14:42:00,
2013-07-21 09:47:00,73.8,68.7,29.92,SSE,153,0.0,1.0,84,0.00,,CLR,0.01,VWS V14.01,2013-07-21 14:47:00,
2013-07-21 09:52:00,74.0,68.9,29.92,SSE,153,0.0,0.0,84,0.00,,CLR,0.01,VWS V14.01,2013-07-21 14:52:00,
2013-07-21 09:57:00,74.0,68.9,29.92,SSE,153,0.0,1.0,84,0.00,,CLR,0.01,VWS V14.01,2013-07-21 14:57:00,
2013-07-21 10:02:00,74.2,69.4,29.92,SSE,153,0.0,0.0,85,0.00,,CLR,0.01,VWS V14.01,2013-07-21 15:02:00,
2013-07-21 10:07:00,74.4,69.6,29.92,SSE,153,0.0,0.0,85,0.00,,CLR,0.01,VWS V14.01,2013-07-21 15:07:00,
2013-07-21 10:12:00,74.6,69.8,29.92,SSE,153,0.0,1.0,85,0.00,,CLR,0.01,VWS V14.01,2013-07-21 15:12:00,
2013-07-21 10:17:00,74.9,70.1,29.92,SSE,153,0.0,1.0,85,0.00,,CLR,0.01,VWS V14.01,2013-07-21 15:17:00,
2013-07-21 10:22:00,75.0,70.2,29.92,SSE,153,0.0,0.0,85,0.00,,CLR,0.01,VWS V14.01,2013-07-21 15:22:00,
2013-07-21 10:27:00,75.2,70.4,29.92,SSE,153,0.0,4.0,85,0.00,,CLR,0.01,VWS V14.01,2013-07-21 15:27:00,
2013-07-21 10:32:00,75.4,70.6,29.92,SSE,153,0.0,0.0,85,0.00,,CLR,0.01,VWS V14.01,2013-07-21 15:32:00,
2013-07-21 10:37:00,75.5,70.7,29.92,SSE,153,0.0,1.0,85,0.00,,CLR,0.01,VWS V14.01,2013-07-21 15:37:00,
2013-07-21 10:42:00,75.6,70.8,29.92,SSE,153,2.0,2.0,85,0.00,,CLR,0.01,VWS V14.01,2013-07-21 15:42:00,
2013-07-21 10:47:00,75.7,70.9,29.92,SSE,153,0.0,2.0,85,0.00,,CLR,0.01,VWS V14.01,2013-07-21 15:47:00,
2013-07-21 10:52:00,75.8,71.0,29.92,SSE,153,2.0,2.0,85,0.00,,CLR,0.01,VWS V14.01,2013-07-21 15:52:00,
2013-07-21 10:57:00,76.0,71.2,29.92,SSE,153,0.0,2.0,85,0.00,,CLR,0.01,VWS V14.01,2013-07-21 15:57:00,
2013-07-21 11:02:00,76.0,71.2,29.92,SSE,153,0.0,0.0,85,0.00,,CLR,0.01,VWS V14.01,2013-07-21 16:02:00,
2013-07-21 11:07:00,76.0,71.2,29.92,SSE,153,0.0,1.0,85,0.00,,CLR,0.01,VWS V14.01,2013-07-21 16:07:00,
2013-07-21 11:12:00,76.1,71.3,29.92,SSE,153,0.0,1.0,85,0.00,,CLR,0.01,VWS V14.01,2013-07-21 16:12:00,
2013-07-21 11:17:00,76.1,71.3,29.92,SSE,153,0.0,2.0,85,0.00,,CLR,0.01,VWS V14.01,2013-07-21 16:17:00,
2013-07-21 11:22:00,76.2,71.4,29.92,SSE,153,0.0,1.0,85,0.00,,CLR,0.01,VWS V14.01,2013-07-21 16:22:00,
2013-07-21 11:27:00,76.3,71.5,29.92,SSE,153,0.0,1.0,85,0.00,,CLR,0.01,VWS V14.01,2013-07-21 16:27:00,
2013-07-21 11:32:00,76.3,71.5,29.91,SSE,153,0.0,0.0,85,0.00,,CLR,0.01,VWS V14.01,2013-07-21 16:32:00,
2013-07-21 11:37:00,76.2,71.4,29.91,SSE,153,0.0,1.0,85,0.00,,CLR,0.01,VWS V14.01,2013-07-21 16:37:00,
2013-07-21 11:42:00,76.2,71.4,29.92,SE,130,0.0,0.0,85,0.00,,CLR,0.01,VWS V14.01,2013-07-21 16:42:00,
2013-07-21 11:47:00,76.3,71.5,29.92,SE,130,0.0,1.0,85,0.00,,CLR,0.01,VWS V14.01,2013-07-21 16:47:00,
2013-07-21 11:52:00,76.4,71.6,29.91,South,169,0.0,0.0,85,0.00,,CLR,0.01,VWS V14.01,2013-07-21 16:52:00,
2013-07-21 11:57:00,76.5,71.7,29.92,South,169,0.0,2.0,85,0.00,,CLR,0.01,VWS V14.01,2013-07-21 16:57:00,
2013-07-21 12:02:00,76.6,71.8,29.91,South,169,0.0,0.0,85,0.00,,CLR,0.01,VWS V14.01,2013-07-21 17:02:00,
2013-07-21 12:07:00,76.7,71.9,29.91,South,169,0.0,2.0,85,0.00,,CLR,0.01,VWS V14.01,2013-07-21 17:07:00,
2013-07-21 12:12:00,76.9,72.1,29.91,South,178,2.0,4.0,85,0.00,,CLR,0.01,VWS V14.01,2013-07-21 17:12:00,
2013-07-21 12:17:00,77.0,72.2,29.91,South,178,0.0,5.0,85,0.00,,CLR,0.01,VWS V14.01,2013-07-21 17:17:00,
2013-07-21 12:22:00,77.1,71.9,29.91,South,178,0.0,4.0,84,0.00,,CLR,0.01,VWS V14.01,2013-07-21 17:22:00,
2013-07-21 12:27:00,77.1,71.9,29.91,South,175,0.0,7.0,84,0.00,,CLR,0.01,VWS V14.01,2013-07-21 17:27:00,
2013-07-21 12:32:00,77.2,72.0,29.91,South,175,0.0,2.0,84,0.00,,CLR,0.01,VWS V14.01,2013-07-21 17:32:00,
2013-07-21 12:37:00,77.4,72.2,29.90,South,174,0.0,2.0,84,0.00,,CLR,0.01,VWS V14.01,2013-07-21 17:37:00,
2013-07-21 12:42:00,77.6,72.4,29.91,South,174,0.0,0.0,84,0.00,,CLR,0.01,VWS V14.01,2013-07-21 17:42:00,
2013-07-21 12:47:00,77.6,72.0,29.91,South,174,0.0,1.0,83,0.00,,CLR,0.01,VWS V14.01,2013-07-21 17:47:00,
2013-07-21 12:52:00,77.5,71.9,29.90,South,173,0.0,0.0,83,0.00,,CLR,0.01,VWS V14.01,2013-07-21 17:52:00,
2013-07-21 12:57:00,77.6,72.0,29.90,South,174,1.0,4.0,83,0.00,,CLR,0.01,VWS V14.01,2013-07-21 17:57:00,
2013-07-21 13:02:00,77.5,71.9,29.90,WSW,249,0.0,0.0,83,0.00,,CLR,0.01,VWS V14.01,2013-07-21 18:02:00,
2013-07-21 13:07:00,77.7,72.1,29.90,WSW,249,0.0,1.0,83,0.00,,CLR,0.01,VWS V14.01,2013-07-21 18:07:00,
2013-07-21 13:12:00,77.9,72.3,29.90,WSW,248,0.0,1.0,83,0.00,,CLR,0.01,VWS V14.01,2013-07-21 18:12:00,
2013-07-21 13:17:00,78.6,73.0,29.90,SSE,158,0.0,5.0,83,0.00,,CLR,0.01,VWS V14.01,2013-07-21 18:17:00,
2013-07-21 13:22:00,78.9,72.9,29.90,SSE,158,1.0,1.0,82,0.00,,CLR,0.01,VWS V14.01,2013-07-21 18:22:00,
2013-07-21 13:27:00,78.9,72.9,29.90,South,191,0.0,5.0,82,0.00,,CLR,0.01,VWS V14.01,2013-07-21 18:27:00,
2013-07-21 13:32:00,79.2,73.6,29.89,South,191,1.0,1.0,83,0.00,,CLR,0.01,VWS V14.01,2013-07-21 18:32:00,
2013-07-21 13:41:00,79.0,73.0,29.89,South,191,0.0,4.0,82,0.00,,CLR,0.01,VWS V14.01,2013-07-21 18:41:00,
2013-07-21 13:47:00,79.2,73.6,29.89,SW,236,0.0,5.0,83,0.00,,CLR,0.01,VWS V14.01,2013-07-21 18:47:00,
2013-07-21 13:52:00,79.6,73.6,29.88,SW,221,0.0,2.0,82,0.00,,SCT013,0.01,VWS V14.01,2013-07-21 18:52:00,
2013-07-21 13:57:00,79.6,73.3,29.88,SW,221,0.0,2.0,81,0.00,,SCT013,0.01,VWS V14.01,2013-07-21 18:57:00,
2013-07-21 14:02:00,79.3,73.0,29.88,WSW,240,0.0,1.0,81,0.00,,SCT013,0.01,VWS V14.01,2013-07-21 19:02:00,
2013-07-21 14:07:00,79.2,72.9,29.88,WSW,239,0.0,4.0,81,0.00,,SCT013,0.01,VWS V14.01,2013-07-21 19:07:00,
2013-07-21 14:12:00,79.3,73.0,29.88,WSW,239,1.0,1.0,81,0.00,,SCT013,0.01,VWS V14.01,2013-07-21 19:12:00,
2013-07-21 14:17:00,79.5,73.2,29.88,WSW,240,0.0,5.0,81,0.00,,SCT013,0.01,VWS V14.01,2013-07-21 19:17:00,
2013-07-21 14:22:00,80.0,73.7,29.88,WSW,238,4.0,6.0,81,0.00,,SCT013,0.01,VWS V14.01,2013-07-21 19:22:00,
2013-07-21 14:27:00,80.1,73.4,29.87,WSW,250,0.0,7.0,80,0.00,,SCT013,0.01,VWS V14.01,2013-07-21 19:27:00,
2013-07-21 14:32:00,80.3,73.6,29.87,South,186,0.0,0.0,80,0.00,,SCT075,0.01,VWS V14.01,2013-07-21 19:32:00,
2013-07-21 14:37:00,81.1,73.6,29.87,South,186,0.0,3.0,78,0.00,,SCT075,0.01,VWS V14.01,2013-07-21 19:37:00,
2013-07-21 14:42:00,81.1,73.6,29.87,WSW,244,0.0,1.0,78,0.00,,SCT075,0.01,VWS V14.01,2013-07-21 19:42:00,
2013-07-21 14:47:00,80.9,73.8,29.87,WSW,244,1.0,3.0,79,0.00,,SCT075,0.01,VWS V14.01,2013-07-21 19:47:00,
2013-07-21 14:52:00,81.0,73.5,29.86,SW,227,0.0,4.0,78,0.00,,SCT075,0.01,VWS V14.01,2013-07-21 19:52:00,
2013-07-21 14:57:00,81.7,73.8,29.86,WSW,253,5.0,6.0,77,0.00,,SCT075,0.01,VWS V14.01,2013-07-21 19:57:00,
2013-07-21 15:02:00,82.5,74.6,29.86,WSW,246,1.0,1.0,77,0.00,,SCT075,0.01,VWS V14.01,2013-07-21 20:02:00,
2013-07-21 15:07:00,83.1,74.0,29.86,SW,221,0.0,4.0,74,0.00,,SCT075,0.01,VWS V14.01,2013-07-21 20:07:00,
2013-07-21 15:12:00,82.4,73.7,29.86,SW,220,1.0,2.0,75,0.00,,SCT075,0.01,VWS V14.01,2013-07-21 20:12:00,
2013-07-21 15:17:00,82.2,73.9,29.85,SW,219,1.0,2.0,76,0.00,,SCT075,0.01,VWS V14.01,2013-07-21 20:17:00,
2013-07-21 15:22:00,81.9,74.0,29.86,SW,220,1.0,3.0,77,0.00,,SCT075,0.01,VWS V14.01,2013-07-21 20:22:00,
2013-07-21 15:27:00,82.0,74.1,29.86,SW,220,1.0,3.0,77,0.00,,SCT075,0.01,VWS V14.01,2013-07-21 20:27:00,
2013-07-21 15:32:00,82.0,73.7,29.85,SW,223,0.0,1.0,76,0.00,,SCT029,0.01,VWS V14.01,2013-07-21 20:32:00,
2013-07-21 15:37:00,82.1,73.8,29.85,SW,223,1.0,3.0,76,0.00,,SCT029,0.01,VWS V14.01,2013-07-21 20:37:00,
2013-07-21 15:42:00,82.3,74.0,29.85,SW,223,0.0,2.0,76,0.00,,SCT029,0.01,VWS V14.01,2013-07-21 20:42:00,
2013-07-21 15:47:00,82.1,74.2,29.85,SW,223,0.0,2.0,77,0.00,,SCT029,0.01,VWS V14.01,2013-07-21 20:47:00,
2013-07-21 15:52:00,81.9,73.6,29.85,SW,223,0.0,0.0,76,0.00,,BKN027,0.01,VWS V14.01,2013-07-21 20:52:00,
2013-07-21 15:57:00,81.7,74.2,29.85,SW,229,0.0,4.0,78,0.00,,BKN027,0.01,VWS V14.01,2013-07-21 20:57:00,
2013-07-21 16:02:00,81.6,73.7,29.85,SW,228,0.0,0.0,77,0.00,,BKN027,0.01,VWS V14.01,2013-07-21 21:02:00,
2013-07-21 16:11:00,81.7,74.2,29.85,SW,229,0.0,5.0,78,0.00,,BKN027,0.01,VWS V14.01,2013-07-21 21:11:00,
2013-07-21 16:17:00,81.6,74.1,29.85,SW,229,0.0,3.0,78,0.00,,BKN027,0.01,VWS V14.01,2013-07-21 21:17:00,
2013-07-21 16:23:00,81.7,74.2,29.85,SW,229,0.0,0.0,78,0.00,,BKN027,0.01,VWS V14.01,2013-07-21 21:23:00,
2013-07-21 16:28:00,81.7,74.2,29.85,SW,229,0.0,1.0,78,0.00,,BKN027,0.01,VWS V14.01,2013-07-21 21:28:00,
2013-07-21 16:33:00,81.6,74.1,29.85,SW,229,1.0,1.0,78,0.00,,CLR,0.01,VWS V14.01,2013-07-21 21:33:00,
2013-07-21 16:38:00,81.5,74.4,29.84,SW,229,0.0,4.0,79,0.00,,CLR,0.01,VWS V14.01,2013-07-21 21:38:00,
2013-07-21 16:43:00,81.6,74.5,29.85,SW,229,0.0,0.0,79,0.00,,CLR,0.01,VWS V14.01,2013-07-21 21:43:00,
2013-07-21 16:48:00,81.7,74.6,29.85,SW,229,0.0,2.0,79,0.00,,CLR,0.01,VWS V14.01,2013-07-21 21:48:00,
2013-07-21 16:53:00,81.9,74.4,29.85,SW,229,0.0,1.0,78,0.00,,SCT100,0.01,VWS V14.01,2013-07-21 21:53:00,
2013-07-21 16:58:00,82.0,74.5,29.85,SW,229,0.0,2.0,78,0.00,,SCT100,0.01,VWS V14.01,2013-07-21 21:58:00,
2013-07-21 17:03:00,82.2,74.3,29.85,SW,229,0.0,1.0,77,0.00,,SCT100,0.01,VWS V14.01,2013-07-21 22:03:00,
2013-07-21 17:08:00,82.2,73.9,29.85,SW,229,0.0,1.0,76,0.00,,SCT100,0.01,VWS V14.01,2013-07-21 22:08:00,
2013-07-21 17:13:00,82.3,74.0,29.85,SW,229,0.0,0.0,76,0.00,,SCT100,0.01,VWS V14.01,2013-07-21 22:13:00,
2013-07-21 17:18:00,82.5,74.6,29.85,SW,229,0.0,1.0,77,0.00,,SCT100,0.01,VWS V14.01,2013-07-21 22:18:00,
2013-07-21 17:23:00,82.3,74.0,29.85,SW,229,0.0,0.0,76,0.00,,SCT100,0.01,VWS V14.01,2013-07-21 22:23:00,
2013-07-21 17:28:00,82.3,74.0,29.84,SW,229,0.0,0.0,76,0.00,,SCT100,0.01,VWS V14.01,2013-07-21 22:28:00,
2013-07-21 17:33:00,82.2,73.9,29.84,SW,229,1.0,1.0,76,0.00,,CLR,0.01,VWS V14.01,2013-07-21 22:33:00,
2013-07-21 17:38:00,82.0,74.1,29.84,SW,229,0.0,1.0,77,0.00,,CLR,0.01,VWS V14.01,2013-07-21 22:38:00,
2013-07-21 17:43:00,81.9,74.0,29.84,SW,229,0.0,1.0,77,0.00,,CLR,0.01,VWS V14.01,2013-07-21 22:43:00,
2013-07-21 17:48:00,81.7,73.8,29.83,SW,229,0.0,1.0,77,0.00,,CLR,0.01,VWS V14.01,2013-07-21 22:48:00,
2013-07-21 17:53:00,81.7,73.8,29.83,SW,229,0.0,0.0,77,0.00,,CLR,0.01,VWS V14.01,2013-07-21 22:53:00,
2013-07-21 17:58:00,81.7,73.4,29.82,SW,229,0.0,0.0,76,0.00,,CLR,0.01,VWS V14.01,2013-07-21 22:58:00,
2013-07-21 18:03:00,81.6,73.7,29.82,SW,229,0.0,0.0,77,0.00,,CLR,0.01,VWS V14.01,2013-07-21 23:03:00,
2013-07-21 18:08:00,81.6,73.3,29.82,SW,229,0.0,0.0,76,0.00,,CLR,0.01,VWS V14.01,2013-07-21 23:08:00,
2013-07-21 18:13:00,81.8,73.5,29.82,SW,229,0.0,0.0,76,0.00,,CLR,0.01,VWS V14.01,2013-07-21 23:13:00,
2013-07-21 18:18:00,82.0,73.7,29.83,SW,229,0.0,0.0,76,0.00,,CLR,0.01,VWS V14.01,2013-07-21 23:18:00,
2013-07-21 18:23:00,82.1,73.4,29.83,SW,229,0.0,0.0,75,0.00,,CLR,0.01,VWS V14.01,2013-07-21 23:23:00,
2013-07-21 18:28:00,82.3,74.0,29.83,SW,229,0.0,1.0,76,0.00,,CLR,0.01,VWS V14.01,2013-07-21 23:28:00,
2013-07-21 18:33:00,82.4,73.7,29.83,SW,229,1.0,1.0,75,0.00,,-RA,0.01,VWS V14.01,2013-07-21 23:33:00,
2013-07-21 18:38:00,82.3,74.0,29.83,SW,229,1.0,1.0,76,0.00,,-RA,0.01,VWS V14.01,2013-07-21 23:38:00,
2013-07-21 18:43:00,82.3,74.0,29.83,SW,229,0.0,1.0,76,0.00,,-RA,0.01,VWS V14.01,2013-07-21 23:43:00,
2013-07-21 18:48:00,82.1,73.8,29.83,SW,229,0.0,1.0,76,0.00,,-RA,0.01,VWS V14.01,2013-07-21 23:48:00,
2013-07-21 18:53:00,82.1,73.8,29.82,SW,229,0.0,0.0,76,0.00,,CLR,0.01,VWS V14.01,2013-07-21 23:53:00,
2013-07-21 18:58:00,82.1,73.8,29.82,SW,229,0.0,1.0,76,0.00,,CLR,0.01,VWS V14.01,2013-07-21 23:58:00,
2013-07-21 19:03:00,82.1,73.8,29.82,SW,229,0.0,1.0,76,0.00,,CLR,0.01,VWS V14.01,2013-07-22 00:03:00,
2013-07-21 19:08:00,82.1,74.2,29.82,SW,229,0.0,1.0,77,0.00,,CLR,0.01,VWS V14.01,2013-07-22 00:08:00,
2013-07-21 19:13:00,82.1,73.8,29.83,SW,229,0.0,1.0,76,0.00,,CLR,0.01,VWS V14.01,2013-07-22 00:13:00,
2013-07-21 19:21:00,82.0,74.1,29.83,SW,229,0.0,1.0,77,0.00,,CLR,0.01,VWS V14.01,2013-07-22 00:21:00,
2013-07-21 19:28:00,81.8,73.9,29.83,SW,229,0.0,0.0,77,0.00,,CLR,0.01,VWS V14.01,2013-07-22 00:28:00,
2013-07-21 19:33:00,81.8,74.3,29.82,SW,229,0.0,0.0,78,0.00,,CLR,0.01,VWS V14.01,2013-07-22 00:33:00,
2013-07-21 19:38:00,81.7,73.8,29.83,SW,229,0.0,0.0,77,0.00,,CLR,0.01,VWS V14.01,2013-07-22 00:38:00,
2013-07-21 19:43:00,81.6,74.1,29.83,SW,229,0.0,1.0,78,0.00,,CLR,0.01,VWS V14.01,2013-07-22 00:43:00,
2013-07-21 19:48:00,81.5,74.0,29.83,SW,229,0.0,1.0,78,0.00,,CLR,0.01,VWS V14.01,2013-07-22 00:48:00,
2013-07-21 19:53:00,81.3,73.8,29.83,SW,229,0.0,0.0,78,0.00,,CLR,0.01,VWS V14.01,2013-07-22 00:53:00,
2013-07-21 19:58:00,81.2,74.1,29.83,SW,229,0.0,0.0,79,0.00,,CLR,0.01,VWS V14.01,2013-07-22 00:58:00,
2013-07-21 20:03:00,80.9,73.8,29.83,SW,229,0.0,0.0,79,0.00,,CLR,0.01,VWS V14.01,2013-07-22 01:03:00,
2013-07-21 20:08:00,80.8,74.1,29.83,SW,229,0.0,1.0,80,0.00,,CLR,0.01,VWS V14.01,2013-07-22 01:08:00,
2013-07-21 20:18:00,80.6,73.9,29.82,SW,229,0.0,1.0,80,0.00,,CLR,0.01,VWS V14.01,2013-07-22 01:18:00,
2013-07-21 20:28:00,80.3,73.9,29.83,SW,229,0.0,0.0,81,0.00,,CLR,0.01,VWS V14.01,2013-07-22 01:28:00,
2013-07-21 20:33:00,80.1,74.1,29.82,SW,229,0.0,0.0,82,0.00,,SCT120,0.01,VWS V14.01,2013-07-22 01:33:00,
2013-07-21 20:38:00,79.8,73.8,29.82,SW,229,0.0,0.0,82,0.00,,SCT120,0.01,VWS V14.01,2013-07-22 01:38:00,
2013-07-21 20:43:00,79.7,73.7,29.82,SW,229,0.0,0.0,82,0.00,,SCT120,0.01,VWS V14.01,2013-07-22 01:43:00,
2013-07-21 20:48:00,79.5,73.9,29.83,SW,229,0.0,0.0,83,0.00,,SCT120,0.01,VWS V14.01,2013-07-22 01:48:00,
2013-07-21 20:53:00,79.4,73.8,29.82,SW,229,0.0,0.0,83,0.00,,SCT120,0.01,VWS V14.01,2013-07-22 01:53:00,
2013-07-21 20:58:00,79.3,73.7,29.82,SW,229,0.0,0.0,83,0.00,,SCT120,0.01,VWS V14.01,2013-07-22 01:58:00,
2013-07-21 21:03:00,79.2,73.6,29.82,SW,229,0.0,0.0,83,0.00,,SCT120,0.01,VWS V14.01,2013-07-22 02:03:00,
2013-07-21 21:08:00,79.1,73.5,29.83,SSW,209,0.0,3.0,83,0.00,,SCT120,0.01,VWS V14.01,2013-07-22 02:08:00,
2013-07-21 21:13:00,78.9,73.3,29.83,South,173,0.0,10.0,83,0.00,,SCT120,0.01,VWS V14.01,2013-07-22 02:13:00,
2013-07-21 21:18:00,78.5,72.6,29.83,SSE,168,0.0,10.0,82,0.00,,SCT120,0.01,VWS V14.01,2013-07-22 02:18:00,
2013-07-21 21:23:00,78.2,72.3,29.84,South,169,5.0,10.0,82,0.00,,SCT120,0.01,VWS V14.01,2013-07-22 02:23:00,
2013-07-21 21:28:00,77.9,71.6,29.84,SSW,202,1.0,11.0,81,0.00,,SCT120,0.01,VWS V14.01,2013-07-22 02:28:00,
2013-07-21 21:33:00,77.5,71.2,29.84,SSW,202,1.0,8.0,81,0.00,,BKN070,0.01,VWS V14.01,2013-07-22 02:33:00,
2013-07-21 21:38:00,77.3,71.4,29.84,SE,143,0.0,8.0,82,0.00,,BKN070,0.01,VWS V14.01,2013-07-22 02:38:00,
2013-07-21 21:43:00,77.0,71.1,29.84,South,187,0.0,11.0,82,0.00,,BKN070,0.01,VWS V14.01,2013-07-22 02:43:00,
2013-07-21 21:48:00,76.7,70.8,29.84,SSE,161,0.0,11.0,82,0.00,,BKN070,0.01,VWS V14.01,2013-07-22 02:48:00,
2013-07-21 21:53:00,76.6,71.1,29.84,South,170,0.0,5.0,83,0.00,,BKN055,0.01,VWS V14.01,2013-07-22 02:53:00,
2013-07-21 21:58:00,76.4,70.9,29.84,South,170,0.0,5.0,83,0.00,,BKN055,0.01,VWS V14.01,2013-07-22 02:58:00,
2013-07-21 22:03:00,76.2,71.0,29.84,South,170,0.0,1.0,84,0.00,,BKN055,0.01,VWS V14.01,2013-07-22 03:03:00,
2013-07-21 22:08:00,76.0,70.8,29.84,South,170,0.0,1.0,84,0.00,,BKN055,0.01,VWS V14.01,2013-07-22 03:08:00,
2013-07-21 22:13:00,75.9,70.7,29.84,South,170,1.0,1.0,84,0.00,,BKN055,0.01,VWS V14.01,2013-07-22 03:13:00,
2013-07-21 22:18:00,75.7,70.9,29.85,South,171,1.0,1.0,85,0.01,,BKN055,0.02,VWS V14.01,2013-07-22 03:18:00,
2013-07-21 22:23:00,75.2,70.4,29.85,SW,220,2.0,2.0,85,0.02,,BKN055,0.03,VWS V14.01,2013-07-22 03:23:00,
2013-07-21 22:28:00,74.8,70.0,29.85,SW,227,2.0,4.0,85,0.03,,BKN055,0.04,VWS V14.01,2013-07-22 03:28:00,
2013-07-21 22:33:00,74.4,69.3,29.84,SW,232,0.0,2.0,84,0.04,,-RA,0.05,VWS V14.01,2013-07-22 03:33:00,
2013-07-21 22:38:00,74.2,69.1,29.84,SW,232,0.0,2.0,84,0.05,,-RA,0.06,VWS V14.01,2013-07-22 03:38:00,
2013-07-21 22:43:00,74.0,68.9,29.85,SW,232,0.0,0.0,84,0.05,,-RA,0.06,VWS V14.01,2013-07-22 03:43:00,
2013-07-21 22:48:00,74.0,68.9,29.84,SW,232,0.0,1.0,84,0.05,,-RA,0.06,VWS V14.01,2013-07-22 03:48:00,
2013-07-21 22:54:00,73.8,68.7,29.85,SW,232,0.0,0.0,84,0.05,,-RA,0.06,VWS V14.01,2013-07-22 03:54:00,
2013-07-21 22:59:00,73.7,68.2,29.84,SW,232,0.0,1.0,83,0.05,,-RA,0.06,VWS V14.01,2013-07-22 03:59:00,
2013-07-21 23:01:00,73.6,68.1,29.84,SW,232,0.0,1.0,83,0.05,,-RA,0.06,VWS V14.01,2013-07-22 04:01:00,
2013-07-21 23:04:00,73.6,68.1,29.84,SW,232,0.0,0.0,83,0.05,,-RA,0.06,VWS V14.01,2013-07-22 04:04:00,
2013-07-21 23:09:00,73.5,68.0,29.83,SW,229,0.0,3.0,83,0.06,,-RA,0.07,VWS V14.01,2013-07-22 04:09:00,
2013-07-21 23:14:00,73.4,67.9,29.83,SW,229,0.0,0.0,83,0.06,,-RA,0.07,VWS V14.01,2013-07-22 04:14:00,
2013-07-21 23:19:00,73.3,67.8,29.83,SW,229,0.0,0.0,83,0.06,,-RA,0.07,VWS V14.01,2013-07-22 04:19:00,
2013-07-21 23:21:00,73.3,67.8,29.83,SW,229,0.0,1.0,83,0.06,,-RA,0.07,VWS V14.01,2013-07-22 04:21:00,
2013-07-21 23:29:00,73.2,67.7,29.83,SW,229,0.0,1.0,83,0.04,,-RA,0.07,VWS V14.01,2013-07-22 04:29:00,
2013-07-21 23:34:00,73.2,67.7,29.83,SW,229,0.0,0.0,83,0.02,,-RA,0.07,VWS V14.01,2013-07-22 04:34:00,
2013-07-21 23:39:00,73.2,67.7,29.83,SW,229,0.0,0.0,83,0.02,,-RA,0.07,VWS V14.01,2013-07-22 04:39:00,
2013-07-21 23:44:00,73.1,67.6,29.82,SW,229,0.0,0.0,83,0.02,,-RA,0.08,VWS V14.01,2013-07-22 04:44:00,
2013-07-21 23:49:00,73.0,67.5,29.82,SW,229,0.0,1.0,83,0.02,,-RA,0.08,VWS V14.01,2013-07-22 04:49:00,
2013-07-21 23:54:00,72.9,67.4,29.82,SW,229,0.0,0.0,83,0.02,,SCT100,0.08,VWS V14.01,2013-07-22 04:54:00,
2013-07-21 23:59:00,72.9,67.4,29.82,SW,229,0.0,1.0,83,0.02,,SCT100,0.08,VWS V14.01,2013-07-22 04:59:00,